This demonstration page uses our WeatherBlox Daily Observations layout. Learn more.

Left ArrowRight Arrow

36.19886, -115.1175

Hourly Observations for August 19, 2020

Temp ( °F °C ) Dew Point ( °F °C ) Humidity (%) Winds ( mph kmh ) Pressure ( in mb ) Visibility ( mi km ) Precip ( " mm )
12:53 am 00:53 Clear 95 35 47 8.3 19 19 WNW 7 11 29.82 1010 10 16.0934 0 0
1:53 am 01:53 Clear 94 34.4 48 8.9 21 21 Calm 29.81 1010 10 16.0934 0 0
2:53 am 02:53 Clear 94 34.4 47 8.3 20 20 SSW 3 6 29.8 1009 10 16.0934 0 0
3:53 am 03:53 Clear 93 33.9 48 8.9 21 21 SW 3 6 29.81 1010 10 16.0934 0 0
4:53 am 04:53 Clear 91 32.8 47 8.3 22 22 WNW 3 6 29.82 1010 10 16.0934 0 0
5:53 am 05:53 Clear 88 31.1 46 7.8 23 23 SE 3 6 29.84 1010 10 16.0934 0 0
6:53 am 06:53 Sunny 90 32.2 45 7.2 21 21 NW 6 9 29.84 1011 10 16.0934 0 0
7:53 am 07:53 Sunny 94 34.4 47 8.3 20 20 NNE 9 15 29.85 1011 10 16.0934 0 0
8:53 am 08:53 Sunny 97 36.1 47 8.3 18 18 E 3 6 29.85 1011 10 16.0934 0 0
9:53 am 09:53 Sunny 100 37.8 47 8.3 16 16 Calm 29.85 1011 10 16.0934 0 0
10:53 am 10:53 Sunny 103 39.4 46 7.8 15 15 E 5 7 29.85 1011 10 16.0934 0 0
11:53 am 11:53 Sunny 105 40.6 45 7.2 13 13 VRB 5 7 29.82 1010 10 16.0934 0 0
12:53 pm 12:53 Sunny 108 42.2 44 6.7 12 12 ESE 5 7 29.8 1009 10 16.0934 0 0
1:53 pm 13:53 Sunny 110 43.3 44 6.7 11 11 undefined N/A 29.77 1008 10 16.0934 0 0
2:53 pm 14:53 Sunny 111 43.9 42 5.6 10 10 VRB 3 6 29.73 1007 10 16.0934 0 0
3:53 pm 15:53 Sunny 112 44.4 38 3.3 8 8 Calm 29.71 1006 10 16.0934 0 0
4:53 pm 16:53 Sunny 107 41.7 45 7.2 12 12 WSW 20 31 29.72 1006 10 16.0934 0 0
5:53 pm 17:53 Sunny 106 41.1 43 6.1 12 12 W 17 28 29.71 1006 10 16.0934 0 0
6:53 pm 18:53 Sunny 108 42.2 39 3.9 9 9 NNW 6 9 29.69 1006 10 16.0934 0 0
7:53 pm 19:53 Clear 105 40.6 43 6.1 12 12 Calm 29.71 1006 10 16.0934 0 0
8:53 pm 20:53 Clear 102 38.9 44 6.7 14 14 SW 3 6 29.72 1006 10 16.0934 0 0
9:53 pm 21:53 Clear 101 38.3 44 6.7 14 14 N 8 13 29.73 1007 10 16.0934 0 0
10:53 pm 22:53 Clear 102 38.9 45 7.2 14 14 NNW 21 33 29.73 1007 10 16.0934 0 0
11:53 pm 23:53 Clear 100 37.8 44 6.7 15 15 WNW 15 24 29.73 1007 10 16.0934 0 0

Powered by AerisWeather